Weather History for KBDN - September, 2013

Change the Weather History Date:

Wednesday, September 4, 2013

  Actual Average (KRDM) Record (KRDM)
Temperature  
Mean Temperature 67 °F 61 °F  
Max Temperature 84 °F 80 °F 101 °F (1998)
Min Temperature 50 °F 41 °F 31 °F (1969)
Degree Days  
Heating Degree Days 0 5  
Month to date heating degree days 20  
Since 1 July heating degree days 169  
Cooling Degree Days 2 1  
Month to date cooling degree days 4  
Year to date cooling degree days 210  
Growing Degree Days 17 (Base 50)    
Moisture  
Dew Point 45 °F    
Average Humidity 56    
Maximum Humidity 87    
Minimum Humidity 16    
Precipitation  
Precipitation 0.00 in 0.01 in 0.44 in (1952)
Month to date precipitation 0.05  
Year to date precipitation 5.78  
Sea Level Pressure  
Sea Level Pressure 30.04 in    
Wind  
Wind Speed 4 mph (West)    
Max Wind Speed 18 mph    
Max Gust Speed 24 mph    
Visibility 10 miles    
Events      
T = Trace of Precipitation, MM = Missing Value Source: NWS Daily Summary

Daily Weather History Graph

Daily Weather History Graph

Search for Another Location

Airport or City:

Trip Planner

Search our weather history database for the weather conditions in past years. The results will help you decide how hot, cold, wet, or windy it might be!

Date:

Astronomy

Sep. 04, 2013 Rise Set
Actual Time 6:31 AM PDT 7:34 PM PDT
Civil Twilight 6:02 AM PDT 8:04 PM PDT
Nautical Twilight 5:26 AM PDT 8:39 PM PDT
Astronomical Twilight 4:49 AM PDT 9:16 PM PDT
Moon 5:49 AM PDT (9/4) 6:55 PM PDT (9/4)
Length of Visible Light 14h 02m
Length of Day
13h 03m
Waning Crescent, 1% of the Moon is Illuminated
Sep 4
Waning Crescent
Sep 5
New
Sep 12
First Quarter
Sep 19
Full
Sep 26
Last Quarter

Hourly Weather History & Observations

Time (PDT) Temp. Dew Point Humidity Pressure Visibility Wind Dir Wind Speed Gust Speed Precip Events Conditions
12:15 AM 55.4 °F 48.2 °F 77% 30.06 in 10.0 mi Calm Calm - N/A   Clear
12:35 AM 53.6 °F 48.2 °F 82% 30.06 in 10.0 mi Calm Calm - N/A   Clear
12:55 AM 53.6 °F 46.4 °F 77% 30.06 in 10.0 mi Calm Calm - N/A   Clear
1:15 AM 53.6 °F 46.4 °F 77% 30.06 in 10.0 mi Calm Calm - N/A   Clear
1:35 AM 53.6 °F 46.4 °F 77% 30.06 in 10.0 mi Calm Calm - N/A   Clear
1:55 AM 53.6 °F 46.4 °F 77% 30.06 in 10.0 mi Calm Calm - N/A   Clear
2:15 AM 51.8 °F 46.4 °F 82% 30.06 in 10.0 mi Calm Calm - N/A   Clear
2:35 AM 50.0 °F 46.4 °F 87% 30.06 in 10.0 mi SSW 4.6 mph - N/A   Clear
2:55 AM 51.8 °F 46.4 °F 82% 30.06 in 10.0 mi SSW 4.6 mph - N/A   Clear
3:15 AM 51.8 °F 46.4 °F 82% 30.06 in 10.0 mi SW 6.9 mph - N/A   Clear
3:35 AM 51.8 °F 46.4 °F 82% 30.06 in 10.0 mi SSW 5.8 mph - N/A   Clear
3:55 AM 51.8 °F 46.4 °F 82% 30.06 in 10.0 mi SSW 4.6 mph - N/A   Clear
4:15 AM 51.8 °F 46.4 °F 82% 30.06 in 10.0 mi Calm Calm - N/A   Clear
4:35 AM 51.8 °F 46.4 °F 82% 30.06 in 10.0 mi SW 6.9 mph - N/A   Clear
4:55 AM 51.8 °F 46.4 °F 82% 30.06 in 10.0 mi SW 5.8 mph - N/A   Clear
5:15 AM 50.0 °F 46.4 °F 87% 30.06 in 10.0 mi SSW 5.8 mph - N/A   Clear
5:35 AM 50.0 °F 46.4 °F 87% 30.06 in 10.0 mi SW 6.9 mph - N/A   Clear
5:55 AM 50.0 °F 46.4 °F 87% 30.06 in 10.0 mi SW 5.8 mph - N/A   Clear
6:15 AM 50.0 °F 46.4 °F 87% 30.06 in 10.0 mi SSW 4.6 mph - N/A   Clear
6:35 AM 50.0 °F 46.4 °F 87% 30.07 in 10.0 mi Calm Calm - N/A   Clear
6:55 AM 50.0 °F 46.4 °F 87% 30.07 in 10.0 mi Calm Calm - N/A   Clear
7:15 AM 50.0 °F 46.4 °F 87% 30.07 in 10.0 mi SSE 4.6 mph - N/A   Clear
7:35 AM 51.8 °F 46.4 °F 82% 30.08 in 10.0 mi SSE 4.6 mph - N/A   Clear
7:55 AM 53.6 °F 46.4 °F 77% 30.08 in 10.0 mi SE 5.8 mph - N/A   Clear
8:15 AM 57.2 °F 46.4 °F 67% 30.08 in 10.0 mi Calm Calm - N/A   Clear
8:35 AM 59.0 °F 48.2 °F 67% 30.08 in 10.0 mi SSE 3.5 mph - N/A   Clear
8:55 AM 60.8 °F 48.2 °F 63% 30.08 in 10.0 mi ESE 3.5 mph - N/A   Clear
9:15 AM 64.4 °F 48.2 °F 56% 30.08 in 10.0 mi Calm Calm - N/A   Clear
9:35 AM 64.4 °F 48.2 °F 56% 30.08 in 10.0 mi Calm Calm - N/A   Clear
9:55 AM 66.2 °F 48.2 °F 52% 30.08 in 10.0 mi Calm Calm - N/A   Clear
10:15 AM 68.0 °F 48.2 °F 49% 30.08 in 10.0 mi Calm Calm - N/A   Clear
10:35 AM 69.8 °F 48.2 °F 46% 30.07 in 10.0 mi East 3.5 mph - N/A   Clear
10:55 AM 71.6 °F 46.4 °F 41% 30.07 in 10.0 mi SW 4.6 mph - N/A   Clear
11:15 AM 71.6 °F 44.6 °F 38% 30.07 in 10.0 mi Calm Calm - N/A   Clear
11:35 AM 75.2 °F 41.0 °F 29% 30.07 in 10.0 mi SW 9.2 mph - N/A   Clear
11:55 AM 75.2 °F 39.2 °F 27% 30.05 in 10.0 mi SW 9.2 mph 16.1 mph N/A   Clear
12:15 PM 77.0 °F 33.8 °F 21% 30.05 in 10.0 mi SW 10.4 mph 16.1 mph N/A   Clear
12:35 PM 77.0 °F 35.6 °F 22% 30.05 in 10.0 mi WSW 10.4 mph - N/A   Clear
12:55 PM 77.0 °F 35.6 °F 22% 30.04 in 10.0 mi West 8.1 mph - N/A   Clear
1:15 PM 78.8 °F 33.8 °F 20% 30.03 in 10.0 mi North 4.6 mph - N/A   Clear
1:35 PM 78.8 °F 35.6 °F 21% 30.03 in 10.0 mi SSW 5.8 mph - N/A   Clear
1:55 PM 78.8 °F 35.6 °F 21% 30.03 in 10.0 mi Calm Calm - N/A   Clear
2:15 PM 80.6 °F 35.6 °F 20% 30.02 in 10.0 mi Calm Calm - N/A   Clear
2:35 PM 80.6 °F 37.4 °F 21% 30.01 in 10.0 mi North 4.6 mph - N/A   Clear
2:55 PM 82.4 °F 35.6 °F 19% 30.01 in 10.0 mi Calm Calm - N/A   Clear
3:15 PM 82.4 °F 35.6 °F 19% 30.00 in 10.0 mi NW 11.5 mph 18.4 mph N/A   Clear
3:35 PM 82.4 °F 35.6 °F 19% 29.99 in 10.0 mi NW 4.6 mph - N/A   Partly Cloudy
3:55 PM 84.2 °F 33.8 °F 16% 29.98 in 10.0 mi NW 12.7 mph - N/A   Scattered Clouds
4:15 PM 82.4 °F 41.0 °F 23% 29.98 in 10.0 mi NW 13.8 mph 20.7 mph N/A   Scattered Clouds
4:35 PM 82.4 °F 41.0 °F 23% 29.98 in 10.0 mi NW 10.4 mph 18.4 mph N/A   Partly Cloudy
4:55 PM 80.6 °F 42.8 °F 26% 29.98 in 10.0 mi WNW 18.4 mph 24.2 mph N/A   Clear
5:15 PM 75.2 °F 44.6 °F 34% 29.98 in 10.0 mi NW 16.1 mph 20.7 mph N/A   Clear
5:35 PM 75.2 °F 44.6 °F 34% 29.98 in 10.0 mi NW 16.1 mph 23.0 mph N/A   Clear
5:55 PM 75.2 °F 44.6 °F 34% 29.98 in 10.0 mi NNW 16.1 mph - N/A   Clear
6:15 PM 73.4 °F 46.4 °F 38% 29.99 in 10.0 mi NW 15.0 mph 19.6 mph N/A   Clear
6:35 PM 71.6 °F 46.4 °F 41% 29.99 in 10.0 mi NW 12.7 mph - N/A   Clear
6:55 PM 69.8 °F 48.2 °F 46% 29.99 in 10.0 mi NW 13.8 mph - N/A   Clear
7:15 PM 68.0 °F 48.2 °F 49% 29.99 in 10.0 mi NW 11.5 mph - N/A   Clear
7:35 PM 66.2 °F 48.2 °F 52% 30.00 in 10.0 mi NW 10.4 mph - N/A   Clear
7:55 PM 66.2 °F 48.2 °F 52% 30.01 in 10.0 mi NW 8.1 mph - N/A   Clear
8:15 PM 64.4 °F 46.4 °F 52% 30.02 in 10.0 mi NW 6.9 mph - N/A   Clear
8:35 PM 64.4 °F 46.4 °F 52% 30.02 in 10.0 mi WNW 6.9 mph - N/A   Clear
8:55 PM 62.6 °F 46.4 °F 55% 30.04 in 10.0 mi SW 6.9 mph - N/A   Clear
9:15 PM 62.6 °F 48.2 °F 59% 30.05 in 10.0 mi SW 5.8 mph - N/A   Clear
9:35 PM 62.6 °F 48.2 °F 59% 30.04 in 10.0 mi NW 8.1 mph - N/A   Clear
9:55 PM 62.6 °F 48.2 °F 59% 30.05 in 10.0 mi Calm Calm - N/A   Clear
10:15 PM 60.8 °F 48.2 °F 63% 30.04 in 10.0 mi WNW 6.9 mph - N/A   Clear
10:35 PM 60.8 °F 48.2 °F 63% 30.04 in 10.0 mi NNW 4.6 mph - N/A   Clear
10:55 PM 59.0 °F 48.2 °F 67% 30.04 in 10.0 mi Calm Calm - N/A   Clear
11:15 PM 59.0 °F 48.2 °F 67% 30.04 in 10.0 mi Calm Calm - N/A   Clear
11:35 PM 57.2 °F 48.2 °F 72% 30.04 in 10.0 mi Calm Calm - N/A   Clear
11:55 PM 55.4 °F 48.2 °F 77% 30.05 in 10.0 mi Calm Calm - N/A   Clear